星链-34704(STARLINK-34704)

导读 | 豆包AI

STARLINK-34704是美国SpaceX星链(Starlink)星座的一颗近地轨道通信卫星,于2025年9月25日在美国佛罗里达州发射升空,目前处于在轨运行状态。它运行在平均高度约482公里的近地轨道,轨道倾角约53.2度,作为星链第二代组网卫星,配备相控阵天线与太阳能供电系统,为全球范围提供高速卫星互联网接入服务,助力扩展星链星座的无缝覆盖能力。

基本信息
目录编号:
65746
目录名称:
STARLINK-34704
国际标识:
2025-216N
轨道中心:
EARTH
卫星名称:
星链-34704
卫星全名:
星链-34704(STARLINK-34704)
卫星状态:
在轨 (已飞行216 天)
发射日期:
2025-09-25 UTC
国别 :
美国 (US)
星等 :
--
轨道信息
数据来源 国际轨道数据
星历时间: 2026-04-29T11:03:07+0800
8小时前
查看轨道信息
半长轴: 6853.338km
偏心率: 0.0001623
轨道倾角: 53.162°
近地点辐角 92.011°
升交点赤经 98.761°
平近点角 268.107°
近地点: 474.088km
远地点: 476.314km
周期: 94.105分钟
每日圈数: 15.302049
详细信息
固有亮度:
5
最大亮度:
2.5
卫星平台:
Starlink V1.0
覆盖范围:
全球
运营商:
太空探索技术公司
运营商所在国:
美国
制造商(研发单位):
太空探索技术公司
制造商所在国:
美国
使用方式:
暂无
卫星简介
Starlink 计划是 SpaceX 推出的全球卫星互联网项目,通过发射低轨道卫星,为全球尤其是偏远地区提供高速、低延迟的互联网服务。自 2019 年起,Starlink 已部署数千颗卫星,旨在缩小全球数字鸿沟,推动互联网普及。该项目还为军事、航空等行业提供通信支持,带来广泛经济效益。
2D轨道图
3D轨道图
轨道高度分析图
轨道倾角分析图
轨道综合分析图
查看轨道综合分析图